Location: Fours
(44.3167°N, 6.7000°E)
Time: 11:40:39
(UTC+00:00)

Cosmos 2098 - Pass Details

Date: 05 June 2022
Orbit: 387 x 1577 km, 82.9° (Epoch: 30 June)

Event Time Altitude Azimuth Distance (km) Brightness Sun altitude
Rises 01:21:02 0° 5° (N) 2,292 9.3 -18.6°
Reaches altitude 10° 01:23:11 10° 21° (NNE) 1,460 8.2 -18.5°
Maximum altitude 01:25:44 24° 78° (ENE) 949 6.5 -18.2°
Drops below altitude 10° 01:28:36 10° 134° (SE) 1,646 7.1 -18.0°
Enters shadow 01:28:41 10° 135° (SE) 1,680 7.1 -18.0°
